Location: Newark
(41.8500°S, 167.0500°W)
Time: 08:40:29
(UTC+00:00)

N. Korean satellite - Pass Details

Date: 29 January 2020
Orbit: 456 x 505 km, 97.2° (Epoch: 26 February)

Event Time Altitude Azimuth Distance (km) Brightness Sun altitude
Rises 15:23:31 0° 40° (NE) 2,607 10.4 -8.2°
Reaches altitude 10° 15:25:49 10° 52° (NE) 1,730 9.6 -7.8°
Maximum altitude 15:28:58 26° 110° (ESE) 1,033 9.3 -7.3°
Drops below altitude 10° 15:32:08 10° 167° (SSE) 1,744 10.1 -6.8°
Sets 15:34:27 0° 179° (S) 2,632 10.8 -6.5°
